This is the latest recevied weather packets stored in our database for station/object W5ITZ. If no packets are shown the sender has not sent any weather packets the latest 10 day(s).
| Time | Temp. | Humidity | Pressure | Rain* | Wind** | Luminosity | Snow |
|---|---|---|---|---|---|---|---|
| 1787419923 | 35° C | 52% | 1017.4 hPa | 0 mm | - | 953 W/m² | - |
| 1787419619 | 34.44° C | 54% | 1017.5 hPa | 0 mm | - | 944 W/m² | - |
| 1787419318 | 34.44° C | 52% | 1017.6 hPa | 0 mm | - | 936 W/m² | - |
| 1787419015 | 34.44° C | 52% | 1017.6 hPa | 0 mm | - | 937 W/m² | - |
| 1787418715 | 33.89° C | 55% | 1017.4 hPa | 0 mm | - | 890 W/m² | - |
| 1787418411 | 33.89° C | 58% | 1017.7 hPa | 0 mm | - | 910 W/m² | - |
| 1787418108 | 33.89° C | 58% | 1017.3 hPa | 0 mm | - | 848 W/m² | - |
| 1787417803 | 33.89° C | 58% | 1017.7 hPa | 0 mm | - | 897 W/m² | - |
| 1787417498 | 33.33° C | 60% | 1017.9 hPa | 0 mm | - | 852 W/m² | - |
| 1787417193 | 32.78° C | 62% | 1017.9 hPa | 0 mm | - | 879 W/m² | - |
| 1787416889 | 32.78° C | 61% | 1017.7 hPa | 0 mm | - | 840 W/m² | - |
| 1787416584 | 32.78° C | 64% | 1017.8 hPa | 0 mm | - | 808 W/m² | - |
| 1787416280 | 32.78° C | 64% | 1017.8 hPa | 0 mm | - | 791 W/m² | - |
| 1787415974 | 32.22° C | 67% | 1017.4 hPa | 0 mm | - | 705 W/m² | - |
| 1787415669 | 32.22° C | 66% | 1017.8 hPa | 0 mm | - | 815 W/m² | - |
| 1787415364 | 32.22° C | 66% | 1017.9 hPa | 0 mm | - | 803 W/m² | - |
| 1787415059 | 31.67° C | 67% | 1017.4 hPa | 0 mm | - | 791 W/m² | - |
| 1787414755 | 31.67° C | 68% | 1017.8 hPa | 0 mm | - | 777 W/m² | - |
| 1787414450 | 31.11° C | 68% | 1017.6 hPa | 0 mm | - | 730 W/m² | - |
| 1787414149 | 31.11° C | 70% | 1017.9 hPa | 0 mm | - | 662 W/m² | - |
| 1787413843 | 31.11° C | 70% | 1017.7 hPa | 0 mm | - | 672 W/m² | - |
| 1787413538 | 31.11° C | 69% | 1017.4 hPa | 0 mm | - | 719 W/m² | - |
| 1787413233 | 31.11° C | 71% | 1017.4 hPa | 0 mm | - | 688 W/m² | - |
| 1787412930 | 30.56° C | 72% | 1017.5 hPa | 0 mm | - | 643 W/m² | - |
| 1787412625 | 30.56° C | 74% | 1017.6 hPa | 0 mm | - | 641 W/m² | - |
* Rain latest hour (hover to see other rain measurements)
** Current wind speed in m/s (hover to see current wind gust speed)